AOBA-VELOX 3 (41935 NORAD) Tracking and Keplerian Element Data

This shows tracking and keplerian element data for the satellite.

Feedback or suggestion? Click here.




ElementValue
Catalog41935
NameAOBA-VELOX 3
Epoch Orbit9600
Epoch Day263.22605811
Epoch Year2018
RAAN199.8591
Inclination51.6305
Eccentricity0.0003254
Argument of Perigee146.8815
Mean Anonmoly213.2397
Mean Motion15.93634483
Decay Rate0.00105457
L11 41935U 98067KX 18263.22605811 .00105457 15454-4 29331-3 0 9993
L22 41935 51.6305 199.8591 0003254 146.8815 213.2397 15.93634483 96001

Live tracking and technical data element details for AOBA-VELOX 3 (NORAD 41935). AOBA-VELOX 3 can be tracked NOW for your location showing map with azimuth and elevation plus other details from your city location.

Track the satellite on the map from your city or location and see movement details for azimuth, elevation, latitude, longitude, range, height, and movement on the map or in text.







IsCatalogInMostPopularTable: catalog: 41935, numindb: 118
Update: records affected: 1



GetName: 41935 AOBA-VELOX 3

Hit Count: updated at: Sat, 22 Sep 2018 15:01:04 GMT